Regional Weather Roundup
Issued by NWS

Home | Current Version | Previous Version | Graphics & Text | Print | Product List | Glossary On
Versions: 1 2 3 4 5 6 7 8 9 10 11 12 13 14 15 16 17 18 19 20 21 22 23 24 25 26 27 28 29 30 31 32 33 34 35 36 37 38 39 40 41 42 43 44 45 46 47 48 49 50
000
ASUS43 KMKX 061011
RWRWI

WISCONSIN REGIONAL WEATHER ROUNDUP
NATIONAL WEATHER SERVICE MILWAUKEE/SULLIVAN WI
400 AM CST SAT FEB 06 2016

NOTE: "FAIR" INDICATES FEW OR NO CLOUDS BELOW 12,000 FEET WITH NO
SIGNIFICANT WEATHER AND/OR OBSTRUCTIONS TO VISIBILITY.

WIZ001-002-006>008-014>016-023>028-061100-
NORTHWEST WISCONSIN

CITY           SKY/WX    TMP DP  RH WIND       PRES   REMARKS
SUPERIOR ARPT  CLOUDY    23  17  79 SW9       30.09S WCI  13
ASHLAND        CLOUDY    23  18  81 SW7       30.09S WCI  15
HAYWARD        CLOUDY    23  20  88 SW6       30.08F FOG     WCI  16
SIREN          CLOUDY    25  21  86 W7        30.10F WCI  17
CUMBERLAND     CLOUDY    23  21  93 SW7       30.09F FOG     WCI  15
RICE LAKE      CLOUDY    24  22  93 S6        30.13S FOG     WCI  17
CHETEK         CLOUDY    23  22  95 SW3       30.12F FOG
LADYSMITH      CLOUDY    23  21  94 SW5       30.12F FOG     WCI  16
EAU CLAIRE     CLOUDY    25  20  81 SW7       30.14F WCI  17
MENOMONIE      CLOUDY    27  22  83 SW5       30.15S WCI  21
NEW RICHMOND   CLOUDY    25  22  85 W8        30.13F WCI  17
OSCEOLA        CLOUDY    26  22  87 SW7       30.16F WCI  18
$$

WIZ003>005-009-010-017-018-061100-
NORTH CENTRAL WISCONSIN

CITY           SKY/WX    TMP DP  RH WIND       PRES   REMARKS
MANITOWISH WTR CLOUDY    19  19 100 W6        30.04F FOG     WCI  11
ARBOR VITAE    CLOUDY    22  20  92 W7        30.06S FOG     WCI  13
WOODRUFF       CLOUDY    22  20  92 W7        30.06S FOG     WCI  13
RHINELANDER    CLOUDY    20  17  88 W8        30.07S WCI  10
EAGLE RIVER    CLOUDY    20  18  90 W10       30.05S FOG     WCI   9
LAND O LAKES   CLOUDY    21  19  93 SW5       30.04S FOG     WCI  15
PHILLIPS       CLOUDY    20  19  97 SW8       30.07F FOG     WCI  10
TOMAHAWK       CLOUDY    20  18  89 SW3       30.09S FOG
MEDFORD        CLOUDY    21  20  98 SW7       30.09F FOG     WCI  12
MERRILL        CLOUDY    22  19  91 W8        30.11F WCI  12
$$

WIZ029-030-035-036-043>047-061100-
CENTRAL WISCONSIN

CITY           SKY/WX    TMP DP  RH WIND       PRES   REMARKS
WAUSAU         CLOUDY    23  20  88 W7        30.11S WCI  15
MOSINEE        CLOUDY    23  21  93 SW10      30.13F WCI  12
MARSHFIELD     CLOUDY    23  19  85 W9        30.12F FOG     WCI  13
STEVENS POINT  CLOUDY    22  19  87 SW8       30.14F WCI  13
WAUPACA        FLURRIES  27  21  79 SW7       30.17S WCI  19
WAUTOMA        CLOUDY    26  20  78 SW8       30.18F WCI  18
WISC RAPIDS    CLOUDY    24  19  81 W9        30.16F WCI  14
CAMP DOUGLAS   CLOUDY    26  26 100 SW9       30.17S WCI  17
$$

WIZ011>013-019>022-031-037>040-048>050-061100-
NORTHEAST WISCONSIN

CITY           SKY/WX    TMP DP  RH WIND       PRES   REMARKS
ANTIGO         CLOUDY    20  18  91 W13       30.09S WCI   8
SHAWANO        FLURRIES  27  21  79 SW8       30.14F WCI  18
OCONTO         CLOUDY    25  20  81 SW10      30.14S WCI  15
STURGEON BAY   CLOUDY    25  16  68 SW12      30.15F WCI  14
GREEN BAY      CLOUDY    25  18  74 SW9       30.16F WCI  15
MANITOWOC      CLOUDY    27  19  72 SW13      30.18F WCI  16
APPLETON       FLURRIES  27  19  74 SW13      30.14F WCI  16
CLINTONVILLE   FLURRIES  27  19  74 SW7       30.15S WCI  19
OSHKOSH        CLOUDY    26  18  71 SW8       30.17F WCI  18
$$

WIZ032>034-041-042-053>061-061100-
SOUTHWEST WISCONSIN

CITY           SKY/WX    TMP DP  RH WIND       PRES   REMARKS
LA CROSSE      CLOUDY    27  23  85 W3        30.20S
SPARTA         CLOUDY    26  24  89 SW3       30.19S
VIROQUA        CLOUDY    25  23  90 SW12      30.16F WCI  15
BOSCOBEL       CLOUDY    29  22  75 SW6       30.22S WCI  23
PRAIRIE DU CHI CLOUDY    28  21  72 SW3       30.22S
PLATTEVILLE    CLOUDY    26  23  87 SW8       30.21S WCI  18
$$

WIZ056-057-062-063-064-067-068-061100-
SOUTH CENTRAL WISCONSIN

CITY           SKY/WX    TMP DP  RH WIND       PRES   REMARKS
REEDSBURG      CLOUDY    26  20  76 SW8       30.19S WCI  18
BARABOO/DELLS  CLOUDY    26  19  73 SW7       30.18F WCI  18
LONE ROCK      CLOUDY    28  19  69 SW6       30.22F WCI  22
MINERAL POINT  FLURRIES  28  23  80 S7        30.19F WCI  21
MADISON        CLOUDY    27  20  75 MISG      30.20F
MIDDLETON      CLOUDY    28  21  74 SW8       30.20F WCI  20
WATERTOWN      CLOUDY    27  23  86 SW7       30.21F WCI  19
MONROE         CLOUDY    28  23  80 SW9       30.21S WCI  20
JANESVILLE     CLOUDY    30  25  80 SW6       30.24R WCI  24
$$

WIZ051-052-058>065-066-070>072-061100-
SOUTHEAST WISCONSIN

CITY           SKY/WX    TMP DP  RH WIND       PRES   REMARKS
MILWAUKEE      CLOUDY    29  21  72 SW9       30.24S WCI  20
WAUKESHA       CLOUDY    27  21  80 SW6       30.24R WCI  20
MILWAUKEE/TIMM CLOUDY    28  19  69 SW8       30.24R WCI  20
RACINE         CLOUDY    28  21  75 W9        30.26S WCI  19
BURLINGTON     CLOUDY    26  21  83 SW7       30.24F WCI  18
KENOSHA        CLOUDY    27  22  81 SW8       30.25F WCI  19
FOND DU LAC    CLOUDY    26  19  74 SW9       30.19F WCI  17
SHEBOYGAN      CLOUDY    27  17  66 SW12      30.20F WCI  17
WEST BEND      CLOUDY    28  21  74 SW8       30.21S WCI  20
JUNEAU         CLOUDY    26  21  80 SW12      30.22S WCI  16
$$

LSZ147-162-061100-
LAKE SUPERIOR

STATION/POSITION TIME  TEMP    WIND        PRES    WAVE
                       AIR SEA DIR/SP/G            HT/PER
                 (UTC) (F)     (DEG/KT/KT) (MB)    (FT/S)
DEVILS ISLAND    1000   28     270/ 20/ 22 1018.5F
SAXON HARBOR     0900   25                 1018.6
$$

LMZ867-665-643>646-061100-
LAKE MICHIGAN

STATION/POSITION TIME  TEMP    WIND        PRES    WAVE
                       AIR SEA DIR/SP/G            HT/PER
                 (UTC) (F)     (DEG/KT/KT) (MB)    (FT/S)
CHAMBERS ISLAND  0900   26     210/  9/ 14 1020.7F
ALGOMA LAKESHORE 0911          260/ 10/ 17   N/A
KEWAUNEE LAKESHO 0900   26     260/  9/ 15 1021.2F
SHEBOYGAN LAKESH 1000   29     240/ 10/ 12 1023.9F
PORT WASHINGTON  0900   29     240/  6/ 10 1024.0F
MILWAUKEE LAKESH 0910   30     250/ 10/ 11   N/A
KENOSHA   LAKESH 1000   28     250/  9/ 12 1024.7S
$$

TC  - TEMPERATURE IN CELSIUS
VSB - VISIBILITY IN STATUTE MILES
WCI - WIND CHILL INDEX
HX  - HEAT INDEX




USA.gov is the U.S. government's official web portal to all federal, state and local government web resources and services.